This is the latest recevied weather packets stored in our database for station/object K4DNM. If no packets are shown the sender has not sent any weather packets the latest 10 day(s).
| Time | Temp. | Humidity | Pressure | Rain* | Wind** | Luminosity | Snow |
|---|---|---|---|---|---|---|---|
| 1787847829 | 30.56° C | 65% | 1014.9 hPa | 0 mm | - | 716 W/m² | - |
| 1787847529 | 30.56° C | 64% | 1014.9 hPa | 0 mm | - | 897 W/m² | - |
| 1787847228 | 30° C | 65% | 1014.9 hPa | 0 mm | - | 875 W/m² | - |
| 1787846987 | 30° C | 66% | 1015 hPa | 0 mm | - | 910 W/m² | - |
| 1787846626 | 30° C | 67% | 1015.1 hPa | 0 mm | - | 700 W/m² | - |
| 1787846324 | 30° C | 67% | 1015 hPa | 0 mm | - | 871 W/m² | - |
| 1787846085 | 30.56° C | 69% | 1015.1 hPa | 0 mm | - | 894 W/m² | - |
| 1787845723 | 30.56° C | 66% | 1015.2 hPa | 0 mm | - | 764 W/m² | - |
| 1787845483 | 30° C | 67% | 1015.3 hPa | 0 mm | - | 938 W/m² | - |
| 1787845123 | 29.44° C | 68% | 1015.4 hPa | 0 mm | - | 775 W/m² | - |
| 1787844823 | 29.44° C | 69% | 1015.4 hPa | 0 mm | - | 902 W/m² | - |
| 1787844583 | 29.44° C | 69% | 1015.4 hPa | 0 mm | - | 878 W/m² | - |
| 1787844219 | 28.89° C | 70% | 1015.4 hPa | 0 mm | - | 832 W/m² | - |
| 1787843915 | 28.89° C | 73% | 1015.4 hPa | 0 mm | - | 832 W/m² | - |
| 1787843614 | 28.89° C | 72% | 1015.4 hPa | 0 mm | - | 848 W/m² | - |
| 1787843311 | 28.33° C | 74% | 1015.4 hPa | 0 mm | - | 301 W/m² | - |
| 1787843010 | 27.78° C | 73% | 1015.4 hPa | 0 mm | - | 450 W/m² | - |
| 1787842711 | 27.22° C | 76% | 1015.4 hPa | 0 mm | - | 174 W/m² | - |
| 1787842410 | 26.67° C | 78% | 1015.4 hPa | 0 mm | - | 158 W/m² | - |
| 1787842109 | 26.67° C | 79% | 1015.5 hPa | 0 mm | - | 261 W/m² | - |
| 1787841816 | 26.67° C | 80% | 1015.4 hPa | 0 mm | - | 135 W/m² | - |
| 1787841511 | 27.22° C | 80% | 1015.6 hPa | 0 mm | - | 174 W/m² | - |
| 1787841210 | 26.67° C | 81% | 1015.6 hPa | 0 mm | - | 212 W/m² | - |
| 1787840907 | 26.67° C | 83% | 1015.5 hPa | 0 mm | - | 193 W/m² | - |
| 1787840603 | 26.67° C | 82% | 1015.5 hPa | 0 mm | - | 259 W/m² | - |
* Rain latest hour (hover to see other rain measurements)
** Current wind speed in m/s (hover to see current wind gust speed)